GFSCGP_con_mucape_159.txt.gz
CAPE
45 69 106 103 162 160 148 143 49 30 20 48 9 12 5 0 0 0 0 0 0 0 0 0 0 0 0 753 3557 4599 3458 3487 3503 2953 2508 2198 1927 1761 1278 1155 1629 1582 1251 1056
60 45 120 59 72 160 118 153 155 115 122 114 52 17 15 19 0 0 0 0 0 0 0 0 0 0 50 2204 4113 4070 3345 3403 3174 3116 2759 2119 2223 1515 1345 1699 1721 1578 1437 1292
36 54 32 52 116 220 132 188 169 162 223 127 86 58 41 20 5 0 0 0 0 0 0 0 0 0 9 2502 4112 3302 3660 3816 2927 3012 3114 3261 2571 2267 1624 2028 1683 1621 1461 1551
38 51 40 37 51 56 169 122 122 199 220 199 123 0 50 19 30 3 0 0 0 0 0 0 0 0 416 3202 4017 3320 3935 3697 3622 3868 2925 3241 2313 2133 1825 2122 2317 2223 2191 1945
13 51 41 91 57 42 50 79 163 247 237 140 125 94 69 37 53 20 1 0 0 0 0 0 0 0 1939 3540 3430 3411 3708 3459 3514 3768 3250 3380 2692 2789 2086 1831 1996 1889 1580 934
0 25 41 46 45 39 63 41 174 168 141 184 133 88 83 44 17 4 0 0 0 0 0 0 0 210 2817 3605 3173 2936 2836 3206 3220 3318 3479 3637 3520 2323 1971 1750 1577 1557 1107 715
24 53 35 25 60 26 73 81 253 220 235 197 129 95 91 19 20 0 0 0 0 0 0 0 0 1496 2413 3506 2789 3069 2916 2906 2878 3137 2900 2739 2446 2542 2413 2409 1902 1588 808 287
30 2 32 16 59 67 52 46 163 120 164 173 99 105 101 0 24 12 14 0 0 0 0 0 18 1462 2980 3136 2489 3048 3199 2961 3068 3075 2570 2173 2454 2233 2076 2256 1068 670 328 200
0 0 0 24 42 61 104 204 108 180 264 243 189 127 113 1 14 13 36 15 1 0 0 0 259 1470 3069 2459 2957 2952 3152 2815 2598 2920 2789 2960 2881 2449 1679 894 788 237 43 12
0 0 0 0 55 47 80 76 150 173 176 159 135 86 72 33 16 29 111 38 13 0 0 0 581 2526 3014 2388 2800 3066 2842 3452 3110 2805 2342 2266 2247 1791 690 380 309 26 2 0
0 0 0 0 0 42 57 170 176 189 258 255 111 256 216 144 64 35 66 0 0 4 12 0 852 2279 2049 3075 2450 2714 3328 3406 2957 2555 2272 1960 1540 775 335 66 2 2 0 0
0 0 0 0 0 2 70 70 128 151 223 230 265 67 88 388 97 22 1 0 0 8 40 141 1169 2488 1277 2408 2597 3202 2521 2318 2357 2018 1428 1245 960 302 126 35 0 0 0 0
0 0 0 0 45 0 42 69 102 158 237 246 238 143 62 295 190 13 3 11 14 4 107 831 2707 2412 2171 1826 2077 2177 1780 1736 1780 1549 1190 948 509 163 133 0 0 0 1 25
0 0 0 0 0 0 78 65 43 123 320 260 206 1 5 193 79 205 86 55 42 57 371 2269 2252 1863 2026 2273 1790 1806 1918 1784 1592 1198 793 583 389 244 131 65 12 30 78 111
0 0 0 0 0 0 0 0 62 148 158 310 270 3 86 124 4 64 251 297 140 105 1078 1853 1245 1382 2037 1995 2330 1846 1687 1591 1261 853 889 470 455 323 210 63 138 94 95 129
0 0 0 0 0 0 0 0 14 62 123 158 211 73 43 97 21 38 218 445 174 1582 1224 948 1261 1237 2384 2053 1499 1617 1535 1194 903 744 477 457 489 292 189 213 124 68 14 0
0 0 0 1 46 3 52 35 70 106 122 213 132 118 98 59 29 135 320 600 1631 813 733 1120 1117 1810 2032 1427 1337 1260 1116 1039 819 544 459 420 362 244 164 56 0 0 0 0
0 0 0 0 60 135 66 159 201 282 260 174 27 28 8 6 75 87 285 985 673 600 751 1040 1325 1553 1440 1161 1011 1096 1176 896 518 296 218 197 413 185 4 0 0 0 0 0
0 0 0 52 4 16 30 1 32 154 161 149 43 20 52 230 291 376 587 730 862 757 631 666 1005 1293 854 740 952 1136 778 534 219 122 109 108 2 0 0 0 0 0 0 0
0 0 0 7 313 70 4 0 14 101 181 6 0 15 196 208 301 511 508 624 753 636 378 637 854 910 855 794 831 590 465 256 110 47 49 10 1 0 0 0 0 0 0 0
0 0 26 43 172 18 0 0 112 0 52 7 73 86 145 244 315 533 587 442 716 775 657 832 916 947 712 603 458 407 201 153 128 127 56 13 0 0 0 0 0 0 0 0
0 0 0 0 4 26 0 0 9 8 10 63 38 67 186 272 439 430 629 686 706 395 599 562 645 523 518 379 416 171 99 60 106 128 9 0 0 0 0 0 0 0 6 2
0 0 0 0 0 0 0 0 16 5 19 0 45 241 241 272 272 300 357 523 715 812 605 518 531 383 348 238 196 113 83 100 23 0 0 0 0 0 0 0 0 0 1 0
0 0 0 0 1 10 8 4 61 40 5 4 47 161 338 332 555 507 546 536 625 672 594 389 310 282 185 104 78 41 27 1 0 0 0 0 0 0 0 0 0 0 0 0
0 0 0 0 3 0 11 28 16 48 9 8 8 124 246 379 380 535 515 527 634 638 669 327 147 130 110 121 89 38 12 6 1 0 0 0 0 0 0 0 0 0 0 0
0 0 0 0 0 0 0 12 6 1 16 3 0 67 128 225 273 271 432 414 587 836 535 162 166 108 87 62 29 15 0 0 0 0 0 0 0 0 0 0 0 0 0 0

GFSCGP_con_mucape_165.txt.gz
CAPE
0 0 0 0 2 18 36 1 3 4 2 5 19 1 0 0 0 0 0 0 0 0 0 0 0 0 230 2705 2095 1405 1061 1581 1852 1444 1002 1698 1105 1728 1466 1081 844 973 449 619
0 0 0 10 14 10 20 17 1 7 9 6 17 14 0 1 0 1 0 0 0 0 0 0 0 0 3 3006 2498 2061 1858 1409 1301 1809 1716 1498 1187 1434 1583 1174 1111 905 861 696
0 0 0 4 4 10 6 16 1 3 5 13 17 0 0 14 18 0 0 0 0 0 0 0 0 0 0 2414 2467 2215 1860 1470 2022 2145 2121 1505 944 1375 1576 1360 1431 1478 1096 932
0 0 0 0 0 13 10 30 16 21 18 0 72 1 8 0 3 12 9 0 0 0 0 0 0 0 0 1058 2937 2376 2305 1772 1837 1738 1430 1092 1020 1344 1472 1499 1357 1329 1136 948
0 0 0 0 0 1 0 22 18 6 8 0 0 31 0 25 19 0 0 0 0 0 0 0 0 0 0 592 3046 2713 2550 2315 1958 1570 1279 766 951 1644 1482 1384 1262 1278 1199 1108
0 0 0 0 3 1 3 3 19 10 10 0 0 24 0 0 0 0 0 0 0 0 0 0 0 0 0 871 3073 2919 2812 2672 2174 1684 1191 827 1122 1421 1400 1341 1349 1264 1173 1410
0 0 0 7 3 6 23 0 0 0 0 0 0 2 0 48 13 0 4 1 0 1 0 0 0 0 0 2712 3022 3001 2738 2715 2197 1769 1299 845 636 1623 1339 1549 1248 1277 1612 1033
0 0 16 6 6 22 7 0 0 0 0 0 12 0 0 1 1 4 0 0 2 9 0 0 0 0 1038 2902 2979 2931 2685 2509 2129 1769 1361 712 817 1171 1629 1572 1400 1066 1022 172
0 0 0 3 0 1 0 0 3 1 14 3 0 0 0 47 15 23 60 3 0 8 2 0 0 1 2478 3089 3073 2848 2555 2268 2107 1709 1339 996 896 1043 1098 1124 916 780 206 94
0 0 0 0 0 0 1 0 0 24 0 0 0 0 95 73 141 82 167 57 0 4 1 0 0 0 2582 3007 3153 2909 2316 2078 2016 1482 1223 1013 1082 1205 1351 1050 871 513 118 12
0 0 0 0 0 0 0 0 0 0 0 0 0 1 101 20 154 141 214 95 2 3 0 0 6 0 2365 2599 2700 2845 2179 1939 1678 1157 1071 917 1294 1219 1313 1010 919 162 18 0
0 0 0 0 0 0 0 0 0 0 0 6 11 1 8 48 55 200 176 62 102 95 59 13 41 0 2034 2302 2765 2330 1804 1552 1343 893 1013 1124 1250 1215 1101 977 246 1 0 0
0 0 0 0 0 0 0 0 0 0 0 0 0 0 15 32 90 68 62 136 157 95 34 6 1 6 1872 2444 2334 1836 1503 1283 943 1300 773 696 717 763 864 329 0 0 0 0
0 0 0 0 0 0 0 0 0 0 0 1 3 0 0 20 1 43 11 35 1 39 47 164 0 1341 2266 2068 1739 1531 1171 1059 887 1353 455 559 584 684 400 5 0 0 0 0
0 0 0 0 0 0 0 0 0 0 0 4 0 0 0 0 0 18 6 0 11 39 325 939 1221 1307 1171 1149 1089 1059 997 945 862 474 376 485 466 251 6 0 0 0 0 0
0 0 0 0 0 0 0 3 0 0 0 0 0 0 0 0 0 0 17 65 27 293 302 815 1022 961 748 589 700 659 362 604 30 328 263 196 231 0 7 10 0 0 0 0
0 0 0 0 0 0 2 1 10 1 48 45 9 0 0 0 0 0 0 24 20 315 394 1025 868 622 470 530 399 192 67 96 122 98 125 92 18 31 25 1 14 7 0 5
0 0 0 0 0 0 0 2 1 1 8 11 14 1 62 18 7 16 27 91 0 62 216 684 563 277 249 147 38 77 168 2 89 115 79 39 40 27 29 71 31 4 0 0
0 0 0 0 0 0 5 0 0 0 0 0 0 2 4 0 0 8 297 163 123 78 222 243 174 125 130 31 38 0 3 40 90 95 138 74 66 88 66 10 0 0 0 0
0 0 0 0 0 0 0 0 1 7 0 0 0 0 0 1 0 0 292 0 20 151 80 300 192 251 105 94 0 0 30 53 274 188 132 111 161 41 2 0 0 0 0 0
0 0 0 0 0 10 1 0 0 3 0 0 0 0 1 8 4 2 190 1 2 182 205 466 562 571 467 150 22 108 99 205 162 124 143 128 6 0 0 0 0 0 0 0
0 0 0 0 0 0 0 0 0 0 1 3 0 2 42 15 1 64 147 16 26 121 378 351 351 346 283 183 230 215 174 208 245 200 9 0 0 0 0 0 0 0 0 0
0 0 0 0 0 0 0 0 0 0 1 38 25 46 28 11 14 94 70 63 171 121 245 464 139 114 222 281 247 245 163 147 46 0 0 0 0 0 0 0 0 0 0 0
0 0 0 0 0 0 0 0 0 36 48 153 95 46 0 1 8 77 105 80 4 99 146 170 201 213 273 337 193 122 45 12 0 0 0 0 0 0 0 0 0 0 0 0
0 0 0 0 0 0 0 0 0 3 43 29 57 37 49 10 2 8 18 123 114 58 99 193 251 238 269 265 149 88 75 70 29 0 0 0 0 0 0 0 0 0 0 0
0 0 0 0 0 0 0 0 0 6 12 46 33 0 27 40 20 3 14 184 188 199 182 219 166 173 271 210 137 74 50 4 0 0 0 0 0 0 0 0 0 0 0 0

GFSCGP_con_mucape_168.txt.gz
CAPE
0 0 0 0 0 0 0 0 0 0 0 2 0 1 0 0 0 0 0 0 0 0 0 0 0 0 1637 1550 1580 865 1035 666 910 766 1201 666 557 622 838 878 640 575 342 481
0 0 0 0 0 0 0 1 0 0 0 9 0 0 0 0 0 0 0 0 0 0 0 0 0 0 1923 1402 954 1092 1329 993 957 1185 1260 965 733 915 1094 1000 783 668 364 1005
0 0 0 0 0 0 0 0 0 0 0 10 2 0 0 0 0 0 0 0 0 0 0 0 0 0 1925 1655 1202 1255 964 428 763 1450 1251 904 1052 1247 1142 987 783 719 555 929
0 0 0 0 0 0 0 0 0 21 13 4 1 0 0 0 0 0 0 0 0 0 0 0 0 0 341 1733 1362 1126 960 1494 1500 1327 1032 988 988 1302 1313 1109 1027 831 714 721
0 0 0 0 0 0 0 0 0 0 0 23 8 0 0 0 0 0 0 0 0 0 0 0 0 0 0 1842 1863 1460 997 1400 1522 1150 667 1036 1001 1056 989 997 1051 944 863 827
0 0 0 0 0 0 5 8 0 0 0 0 0 0 0 0 0 0 0 0 0 0 0 0 0 0 0 495 2352 2119 1643 1164 1018 660 102 150 728 501 810 1010 1153 1211 1114 776
0 0 0 0 0 0 10 0 0 0 0 0 0 0 0 0 0 0 0 0 0 0 0 0 0 0 0 615 2301 2049 1933 1674 1427 942 747 705 616 619 860 866 848 1010 985 958
0 0 0 0 0 0 2 0 0 0 0 0 0 0 0 0 0 0 0 0 0 0 0 0 0 0 0 479 1983 2292 2103 1949 1763 1326 1075 927 536 651 853 744 656 541 504 838
0 0 0 0 0 0 0 0 0 1 0 0 0 0 0 0 0 12 0 0 6 0 0 0 0 0 0 95 1371 2311 2251 2095 2030 1752 1169 869 616 741 623 591 439 456 454 553
0 0 0 0 0 0 0 0 0 0 0 0 0 0 0 0 7 2 99 116 41 38 0 0 0 0 3 34 1178 2383 2415 2068 1853 1680 1303 1009 917 766 712 798 566 241 429 126
0 0 0 0 0 0 0 0 0 0 0 0 0 0 0 3 18 13 21 47 115 115 0 16 24 12 23 1228 2020 2381 2353 1846 1611 1636 1171 830 495 521 523 721 237 395 152 73
0 0 0 0 0 0 0 0 0 0 0 0 0 0 0 1 18 31 44 58 168 280 107 0 10 13 1167 2128 2443 2308 2058 1610 1584 1592 1210 534 582 744 789 575 487 278 86 0
0 0 0 0 0 0 0 0 0 0 0 0 0 0 13 0 0 19 27 148 59 204 153 17 0 1 630 2319 2485 2058 1823 1547 1526 1395 872 485 485 711 586 529 401 125 2 0
0 0 0 0 0 0 0 0 1 0 0 0 0 0 0 0 1 8 32 75 3 174 108 36 35 68 7 1740 1996 1625 1220 1109 1166 911 854 659 580 526 356 337 139 32 0 0
0 0 0 0 0 0 0 0 0 0 0 0 0 0 0 0 0 0 94 93 35 7 13 3 108 315 84 1696 1530 994 749 557 668 757 664 483 384 341 384 199 70 0 0 0
0 0 0 0 0 0 0 0 2 9 0 0 0 0 0 55 23 150 173 307 68 4 96 585 1252 1000 1416 1552 1023 590 391 344 419 555 634 520 270 323 171 180 11 0 0 0
0 0 0 0 0 0 0 0 0 0 5 16 20 16 9 43 74 38 36 30 33 0 256 921 1220 1057 856 773 520 226 244 310 298 544 515 246 224 130 174 68 0 0 0 0
0 0 0 0 0 0 4 0 0 0 0 0 6 9 4 0 7 15 51 34 26 86 343 699 810 631 641 428 292 175 180 451 598 637 455 20 86 110 146 15 1 1 4 0
0 0 0 0 0 0 0 0 0 0 0 0 0 0 0 0 0 4 77 207 264 111 262 666 735 647 470 287 322 264 74 283 458 304 88 33 79 101 55 9 16 0 0 0
0 0 0 0 0 0 0 0 0 0 0 0 0 0 0 0 0 0 11 115 271 5 244 623 657 387 180 187 78 8 1 4 2 3 67 110 103 81 94 59 0 0 0 0
0 0 0 0 0 0 0 0 0 0 0 0 0 0 0 0 0 0 61 170 74 144 32 424 371 265 234 174 95 25 0 20 13 37 93 151 129 102 71 0 0 0 0 0
0 0 0 0 0 0 0 0 0 0 0 0 0 0 0 1 1 36 59 219 38 178 147 219 145 80 29 11 1 0 0 0 17 157 134 135 126 58 0 0 0 0 0 0
0 0 0 0 0 0 0 0 0 0 11 1 0 0 0 3 40 19 150 87 15 8 149 82 42 3 0 5 0 47 20 14 50 109 181 119 2 0 0 0 0 0 0 0
0 0 0 0 0 0 0 0 0 0 2 5 1 18 5 57 59 101 41 41 0 48 87 72 9 0 0 1 83 135 30 53 74 121 31 0 0 0 0 0 0 0 0 0
0 0 0 0 0 0 0 0 0 0 9 1 25 24 24 2 27 54 11 30 0 3 0 44 0 0 0 29 65 109 118 138 80 0 0 0 0 0 0 0 0 0 0 0
0 0 0 0 0 0 0 0 0 0 12 26 26 43 8 36 85 1 2 0 2 1 5 94 77 69 52 56 88 90 110 3 0 0 0 0 0 0 0 0 0 0 0 0

GFSCGP_con_mucape_171.txt.gz
CAPE
0 0 0 0 0 0 0 0 0 0 0 0 0 0 0 0 0 0 0 0 0 0 0 0 0 0 1223 901 935 1341 930 648 699 283 395 553 422 155 353 252 289 54 210 437
0 0 0 0 0 0 0 0 0 0 0 0 0 0 0 0 0 0 0 0 0 0 0 0 0 0 1308 1220 1175 1285 1207 978 693 523 716 629 363 414 346 457 490 476 466 613
0 0 0 0 0 0 0 0 0 0 0 0 0 0 0 0 0 0 0 0 0 0 0 0 0 0 1420 1307 1281 1265 1346 1093 664 537 1066 785 697 622 583 646 785 653 806 977
0 0 0 0 0 0 0 0 0 0 0 0 0 0 0 0 0 0 0 0 0 0 0 0 0 0 1301 1575 1111 1217 1111 895 1092 865 987 959 723 702 728 710 817 767 943 886
0 0 0 0 0 0 0 0 0 0 0 0 0 0 0 0 0 0 0 0 0 0 0 0 0 0 1 1478 1348 942 1050 896 1036 1120 1050 910 839 813 817 615 772 886 789 631
0 0 0 0 8 0 0 0 1 1 0 0 0 0 0 0 0 0 0 0 0 0 0 0 0 0 0 232 1586 1056 606 760 782 1293 1212 1085 897 865 642 649 604 619 655 646
0 0 4 12 12 1 0 0 0 0 0 0 0 0 0 0 0 0 0 0 0 0 0 0 0 0 0 0 1668 1270 889 915 733 1211 1303 1229 731 626 493 287 477 529 610 695
0 0 0 0 0 0 0 0 0 0 0 0 0 0 0 0 0 0 0 0 0 0 0 0 0 0 0 0 1308 1704 1143 803 1007 1080 1300 1095 848 755 742 175 205 342 629 358
0 0 0 0 0 0 0 0 0 0 0 0 0 0 0 0 0 0 0 3 4 0 0 0 0 0 0 8 1289 1600 1753 1103 885 1154 1368 792 707 375 274 88 15 509 171 138
0 0 0 0 0 0 0 0 0 0 0 0 0 0 0 0 0 0 0 0 0 0 0 0 0 0 0 0 834 1773 1726 1636 1028 1137 1063 917 652 566 218 106 63 227 137 186
0 0 0 0 0 0 0 0 0 0 0 0 0 0 0 0 0 0 0 0 0 0 2 12 0 0 0 0 30 1832 1924 1785 1240 1254 1076 934 1021 621 302 193 331 226 296 298
0 0 0 0 0 0 0 0 0 0 1 0 0 1 0 2 2 0 0 0 0 0 9 3 21 0 0 2 632 1945 2073 1662 1509 1307 1077 1077 992 468 412 491 261 266 199 179
0 0 0 0 0 0 0 0 0 0 0 0 0 0 2 15 0 0 0 0 0 3 0 0 2 1 9 1060 1981 2285 1977 1618 1501 1356 980 825 710 481 217 132 187 147 155 102
0 0 0 0 0 0 0 0 0 0 0 0 0 0 0 0 0 0 0 0 0 1 9 0 16 82 100 454 2516 2140 1854 1997 1539 1286 1147 681 379 180 212 182 213 149 170 10
0 0 0 0 0 0 0 0 0 0 0 0 0 0 0 0 0 0 0 0 31 60 39 15 52 181 405 835 2055 1896 1662 1993 1485 861 864 604 544 453 259 257 191 147 51 0
0 0 0 0 0 0 0 0 0 0 0 0 23 1 1 1 0 22 59 96 193 85 128 141 297 1219 786 1472 1577 1361 1398 1403 892 541 549 260 239 273 212 392 67 73 12 0
0 0 0 0 0 0 0 0 0 0 0 0 24 0 2 8 9 1 16 25 36 180 53 142 653 1344 1395 1447 1088 782 957 822 392 352 350 284 184 176 250 175 2 65 2 0
0 0 0 0 0 0 0 0 0 0 0 0 0 0 0 0 0 0 0 14 33 184 358 690 1220 1285 1218 958 592 385 397 307 293 235 181 243 214 251 129 23 0 42 0 0
0 0 0 0 0 0 0 0 0 0 0 0 0 3 0 0 0 0 0 13 153 266 167 469 776 624 755 599 543 481 352 235 216 241 239 299 299 53 53 44 122 27 5 0
0 0 0 0 0 0 0 0 0 0 0 0 0 0 0 0 0 0 0 35 166 233 337 436 767 661 625 468 397 347 279 248 237 284 275 186 166 3 7 49 43 45 21 0
0 0 0 0 0 0 0 0 0 0 0 0 0 0 6 0 2 0 5 73 104 23 198 408 562 631 638 447 310 223 184 249 162 175 68 4 14 12 13 40 81 51 0 0
0 0 0 0 0 0 0 0 0 0 0 0 0 0 0 2 0 3 98 142 50 86 77 294 380 388 348 262 144 63 8 26 3 2 0 18 25 15 34 135 33 0 0 0
0 0 0 0 0 0 0 0 0 0 0 1 0 0 9 12 2 20 6 134 131 59 187 351 230 109 113 75 20 0 0 0 0 19 56 35 14 103 63 6 0 0 0 0
0 0 0 0 0 0 0 0 0 0 3 0 0 2 6 1 7 183 65 7 24 43 356 209 118 49 15 4 0 0 0 8 7 47 70 105 151 24 0 0 0 0 0 0
0 0 0 0 0 0 0 0 0 0 0 3 0 0 0 2 49 72 31 0 51 108 111 87 47 0 0 0 6 68 63 70 63 76 108 67 11 0 0 0 0 0 0 0
0 0 0 0 0 0 0 0 0 0 0 0 1 2 0 24 54 64 8 0 0 5 40 1 0 0 3 37 42 96 128 133 112 110 3 0 0 0 0 0 0 0 0 0

GFSCGP_con_mucape_174.txt.gz
CAPE
0 0 0 0 0 0 0 0 0 0 0 0 0 0 0 0 0 0 0 0 0 0 0 0 0 0 48 662 319 270 340 403 710 910 595 350 220 70 54 58 33 1 43 208
0 0 0 0 0 0 0 0 0 0 0 0 0 0 0 0 0 0 0 0 0 0 0 0 0 0 289 908 598 427 369 336 434 856 528 263 102 98 184 190 119 104 398 355
0 0 0 0 0 0 0 0 0 0 0 0 0 0 0 0 0 0 0 0 0 0 0 0 0 0 86 1084 839 730 590 433 576 844 440 435 568 532 467 455 560 457 525 458
0 0 0 0 0 0 0 0 0 0 0 0 0 0 0 0 0 0 0 0 0 0 0 0 0 0 2 1028 1057 933 787 867 966 680 705 597 597 679 637 672 705 741 746 776
0 0 0 0 0 0 0 0 0 0 0 0 0 0 0 0 0 0 0 0 0 0 0 0 0 0 0 141 1015 1355 897 1008 980 691 957 790 828 788 787 668 868 885 950 729
0 0 0 0 0 0 0 0 0 0 0 0 0 0 0 0 0 0 0 0 0 0 0 0 0 0 0 0 1113 1058 1196 899 977 719 1054 1018 920 1007 916 863 931 799 682 425
0 0 0 0 4 2 0 0 0 0 0 0 0 0 0 0 0 0 0 0 0 0 0 0 0 0 0 0 71 1247 1188 971 878 949 1072 1244 1068 1008 825 731 580 581 438 323
0 0 0 0 0 0 0 0 0 0 0 0 0 0 0 0 0 0 0 0 0 0 0 0 0 0 0 0 0 1401 1205 1036 800 971 1027 1195 1087 894 844 661 605 243 332 191
0 0 0 0 0 0 0 0 0 0 0 0 0 0 0 0 0 0 0 0 0 0 0 0 0 0 0 0 0 1320 1374 1119 822 934 962 822 1018 1020 795 646 321 91 89 55
0 0 0 0 0 0 0 0 0 0 0 0 0 0 0 0 0 0 0 0 0 0 0 0 0 0 0 0 0 950 1705 1217 1068 858 843 836 968 672 429 273 175 109 8 40
29 0 0 0 0 0 0 0 0 0 0 0 0 0 0 0 0 0 0 0 0 0 0 0 0 5 8 0 0 858 1792 1655 1141 977 813 841 784 612 523 507 181 87 130 55
0 0 0 0 0 0 0 0 0 0 0 0 0 0 0 0 0 0 0 0 0 0 0 0 0 0 0 0 0 568 1832 1952 1377 1071 1040 864 797 655 693 450 150 261 56 38
0 0 0 0 0 0 0 0 0 0 0 0 0 0 0 0 0 0 4 0 0 0 0 0 0 0 0 0 5 201 1876 2158 1622 1143 1024 1051 633 539 462 361 184 180 81 107
0 0 0 0 0 0 0 0 0 0 0 0 0 0 0 0 0 0 0 0 0 0 0 0 0 0 0 3 366 246 2156 2244 1717 1207 1081 903 697 835 825 458 361 138 150 43
0 0 0 0 0 0 0 0 0 0 0 0 0 0 0 0 7 0 0 0 0 0 34 6 0 0 4 17 88 1608 2147 2256 1802 1486 1245 966 1148 973 641 425 418 167 47 51
0 0 0 0 0 0 0 0 0 0 0 0 0 0 0 0 0 0 0 0 0 0 44 31 23 6 39 92 392 2142 2187 1938 1664 1267 984 911 1069 793 643 503 332 76 52 5
0 0 0 0 0 0 0 0 0 0 0 0 0 0 0 0 0 0 0 0 0 0 18 0 0 18 14 345 1410 1660 1829 1636 1398 1325 1122 961 597 666 537 305 148 102 43 3
0 0 0 0 0 0 0 0 0 0 0 0 0 0 0 0 0 0 0 0 0 0 0 0 20 98 323 760 1173 1006 1322 1520 1414 1517 1373 848 683 395 228 189 175 164 7 20
0 0 0 0 0 0 0 0 0 0 0 0 0 0 0 0 2 0 0 2 0 0 13 12 169 272 1008 1164 712 654 1305 1344 1288 1571 1025 756 499 396 359 226 187 44 73 1
0 0 0 0 0 0 0 0 0 0 0 0 0 0 0 0 0 0 0 3 5 47 41 0 15 704 853 712 558 531 815 1134 1175 1003 519 611 546 295 233 127 3 30 21 8
0 0 0 0 0 0 0 0 0 0 0 0 0 0 0 0 2 2 2 4 36 98 0 91 461 471 451 339 105 646 812 507 676 468 274 367 298 197 120 0 18 5 14 41
0 0 0 0 0 0 0 0 0 0 0 0 0 0 0 0 1 0 5 10 63 68 178 317 402 281 349 367 229 158 315 334 348 268 314 240 138 42 1 3 45 46 28 1
0 0 0 0 0 0 0 0 0 0 0 0 0 0 0 0 0 4 32 28 6 196 245 269 185 310 307 254 217 172 170 161 162 148 164 98 29 16 27 61 61 12 0 0
0 0 0 0 0 0 0 0 0 0 0 0 0 0 1 3 0 2 57 30 122 178 218 247 149 180 110 162 166 179 125 140 102 98 35 1 38 35 46 19 1 0 0 0
0 0 0 0 0 0 0 0 0 0 0 0 0 0 0 4 0 4 0 0 55 38 72 142 299 342 91 60 21 6 1 1 0 3 5 11 17 21 4 0 0 0 0 0
0 0 0 0 0 0 0 0 0 0 0 0 0 0 20 0 0 1 0 0 8 42 73 80 110 62 1 0 0 0 0 0 10 20 58 28 15 7 0 0 0 0 0 0